| time (UTC) | temp F | wind direction | speed MPH | gust MPH | rain 1hr in | rain 24hr in | rain mn in | humidity % | barometer mb |
| 20260505075336 | 43 | 0 | 5.0 | 7.0 | 0.00 | 0.14 | 0.14 | 88 | 1012.0 |
| 20260505074833 | 43 | 24 | 7.0 | 9.0 | 0.00 | 0.14 | 0.14 | 87 | 1012.2 |
| 20260505074330 | 43 | 16 | 6.0 | 9.0 | 0.00 | 0.14 | 0.14 | 87 | 1012.2 |
| 20260505073828 | 43 | 313 | 4.0 | 6.0 | 0.00 | 0.14 | 0.14 | 87 | 1012.2 |
| 20260505073326 | 44 | 56 | 5.0 | 7.0 | 0.00 | 0.14 | 0.14 | 86 | 1012.0 |
| 20260505072822 | 44 | 22 | 5.0 | 6.0 | 0.00 | 0.14 | 0.14 | 85 | 1011.9 |
| 20260505072318 | 44 | 53 | 7.0 | 10.0 | 0.00 | 0.14 | 0.14 | 84 | 1012.0 |
| 20260505071814 | 44 | 26 | 3.0 | 5.0 | 0.00 | 0.14 | 0.14 | 84 | 1012.4 |
| 20260505071311 | 45 | 350 | 7.0 | 10.0 | 0.07 | 0.14 | 0.14 | 83 | 1012.2 |
| 20260505070809 | 45 | 39 | 4.0 | 6.0 | 0.07 | 0.14 | 0.14 | 82 | 1012.3 |
| 20260505070305 | 45 | 329 | 6.0 | 10.0 | 0.00 | 0.13 | 0.13 | 82 | 1012.3 |
| 20260505065800 | 46 | 354 | 4.0 | 6.0 | 0.00 | 0.13 | 0.13 | 81 | 1012.3 |
| 20260505065258 | 46 | 54 | 1.0 | 3.0 | 0.00 | 0.13 | 0.13 | 82 | 1011.9 |
| 20260505064755 | 47 | 51 | 3.0 | 8.0 | 0.00 | 0.13 | 0.13 | 84 | 1012.0 |
| 20260505064252 | 47 | 61 | 6.0 | 9.0 | 0.00 | 0.13 | 0.13 | 87 | 1012.2 |
| 20260505063749 | 47 | 12 | 3.0 | 5.0 | 0.00 | 0.13 | 0.13 | 89 | 1012.0 |
| 20260505063246 | 47 | 356 | 0.0 | 1.0 | 0.00 | 0.13 | 0.13 | 90 | 1011.6 |
| 20260505062742 | 46 | 350 | 0.0 | 0.0 | 0.00 | 0.13 | 0.13 | 90 | 1011.3 |
| 20260505062240 | 46 | 69 | 0.0 | 0.0 | 0.00 | 0.13 | 0.13 | 90 | 1011.5 |
| 20260505061737 | 46 | 98 | 0.0 | 0.0 | 0.00 | 0.13 | 0.13 | 90 | 1011.2 |
| 20260505061235 | 46 | 98 | 0.0 | 0.0 | 0.00 | 0.13 | 0.13 | 90 | 1011.3 |
| 20260505060732 | 46 | 97 | 0.0 | 0.0 | 0.00 | 0.13 | 0.13 | 90 | 1011.3 |
| 20260505060229 | 46 | 25 | 0.0 | 0.0 | 0.00 | 0.13 | 0.13 | 90 | 1011.0 |
| 20260505055724 | 46 | 25 | 0.0 | 0.0 | 0.00 | 0.13 | 0.13 | 89 | 1011.5 |
| 20260505055220 | 46 | 326 | 0.0 | 0.0 | 0.00 | 0.13 | 0.13 | 89 | 1011.5 |
| 20260505054718 | 46 | 332 | 0.0 | 0.0 | 0.00 | 0.13 | 0.13 | 89 | 1011.5 |
| 20260505054216 | 46 | 311 | 0.0 | 0.0 | 0.00 | 0.13 | 0.13 | 89 | 1011.3 |
| 20260505053714 | 46 | 49 | 0.0 | 0.0 | 0.00 | 0.13 | 0.13 | 89 | 1011.2 |
| 20260505053210 | 46 | 96 | 0.0 | 0.0 | 0.00 | 0.13 | 0.13 | 88 | 1010.9 |
| 20260505052707 | 46 | 112 | 0.0 | 0.0 | 0.00 | 0.13 | 0.13 | 88 | 1010.9 |
| 20260505052204 | 46 | 113 | 0.0 | 0.0 | 0.00 | 0.13 | 0.13 | 88 | 1011.0 |
| 20260505051701 | 46 | 109 | 0.0 | 0.0 | 0.00 | 0.13 | 0.13 | 87 | 1011.0 |
| 20260505051159 | 46 | 95 | 0.0 | 0.0 | 0.00 | 0.13 | 0.13 | 87 | 1010.9 |
| 20260505050657 | 46 | 338 | 0.0 | 0.0 | 0.00 | 0.13 | 0.13 | 86 | 1010.9 |
| 20260505050155 | 46 | 63 | 0.0 | 0.0 | 0.00 | 0.13 | 0.13 | 85 | 1011.0 |
| 20260505041624 | 47 | 148 | 0.0 | 0.0 | 0.00 | 0.13 | 0.13 | 86 | 1011.1 |
| 20260505041122 | 48 | 209 | 2.0 | 3.0 | 0.00 | 0.13 | 0.13 | 86 | 1011.0 |
| 20260505040618 | 48 | 147 | 2.0 | 2.0 | 0.00 | 0.13 | 0.13 | 86 | 1011.1 |
| 20260505040116 | 48 | 137 | 0.0 | 1.0 | 0.00 | 0.13 | 0.13 | 85 | 1011.0 |
| 20260505035612 | 48 | 213 | 2.0 | 2.0 | 0.00 | 0.13 | 0.13 | 86 | 1010.9 |
| 20260505035109 | 48 | 165 | 0.0 | 0.0 | 0.00 | 0.13 | 0.13 | 85 | 1011.0 |
| 20260505034605 | 48 | 164 | 1.0 | 1.0 | 0.00 | 0.13 | 0.13 | 85 | 1011.1 |
| 20260505034102 | 48 | 166 | 1.0 | 2.0 | 0.00 | 0.13 | 0.13 | 84 | 1010.9 |
| 20260505033559 | 49 | 213 | 0.0 | 0.0 | 0.00 | 0.13 | 0.13 | 84 | 1011.0 |
| 20260505033058 | 49 | 236 | 3.0 | 3.0 | 0.00 | 0.13 | 0.13 | 85 | 1011.1 |
| 20260505032555 | 49 | 243 | 0.0 | 1.0 | 0.00 | 0.13 | 0.13 | 84 | 1011.2 |
| 20260505032051 | 49 | 216 | 0.0 | 1.0 | 0.05 | 0.13 | 0.13 | 84 | 1011.0 |
| 20260505031548 | 50 | 182 | 2.0 | 3.0 | 0.05 | 0.13 | 0.13 | 83 | 1010.9 |
| 20260505031045 | 50 | 148 | 3.0 | 5.0 | 0.07 | 0.12 | 0.12 | 83 | 1010.8 |
| 20260505030542 | 50 | 175 | 1.0 | 1.0 | 0.07 | 0.12 | 0.12 | 82 | 1010.7 |
| 20260505030038 | 50 | 211 | 1.0 | 2.0 | 0.00 | 0.11 | 0.11 | 82 | 1010.5 |
| 20260505025533 | 50 | 232 | 1.0 | 2.0 | 0.05 | 0.11 | 0.11 | 82 | 1010.4 |
| 20260505025033 | 50 | 220 | 4.0 | 5.0 | 0.05 | 0.11 | 0.11 | 81 | 1010.4 |
| 20260505024529 | 50 | 202 | 0.0 | 1.0 | 0.07 | 0.10 | 0.10 | 80 | 1010.5 |
| 20260505024026 | 51 | 249 | 0.0 | 1.0 | 0.12 | 0.10 | 0.10 | 78 | 1010.3 |
| 20260505023523 | 51 | 263 | 1.0 | 1.0 | 0.05 | 0.09 | 0.09 | 76 | 1010.7 |
| 20260505023021 | 52 | 282 | 0.0 | 0.0 | 0.00 | 0.08 | 0.08 | 72 | 1010.3 |
| 20260505022518 | 52 | 288 | 1.0 | 2.0 | 0.00 | 0.08 | 0.08 | 70 | 1010.2 |
| 20260505022015 | 52 | 288 | 1.0 | 1.0 | 0.00 | 0.08 | 0.08 | 69 | 1009.8 |
| 20260505021512 | 52 | 316 | 0.0 | 0.0 | 0.00 | 0.08 | 0.08 | 69 | 1010.0 |
| 20260505021009 | 52 | 311 | 0.0 | 1.0 | 0.00 | 0.08 | 0.08 | 69 | 1010.1 |
| 20260505020503 | 52 | 320 | 0.0 | 1.0 | 0.00 | 0.08 | 0.08 | 70 | 1010.0 |
| 20260505020000 | 52 | 304 | 0.0 | 0.0 | 0.00 | 0.08 | 0.08 | 70 | 1010.1 |
| 20260505015457 | 52 | 334 | 2.0 | 2.0 | 0.00 | 0.08 | 0.08 | 70 | 1010.3 |
| 20260505014954 | 52 | 340 | 1.0 | 2.0 | 0.00 | 0.08 | 0.08 | 71 | 1010.1 |
| 20260505014451 | 52 | 322 | 0.0 | 0.0 | 0.00 | 0.08 | 0.08 | 71 | 1010.0 |
| 20260505013948 | 52 | 347 | 0.0 | 1.0 | 0.00 | 0.08 | 0.08 | 71 | 1010.2 |
| 20260505013445 | 52 | 344 | 0.0 | 1.0 | 0.00 | 0.08 | 0.08 | 70 | 1010.0 |
| 20260505012943 | 52 | 298 | 2.0 | 3.0 | 0.00 | 0.08 | 0.08 | 69 | 1009.7 |
| 20260505012441 | 53 | 3 | 3.0 | 3.0 | 0.00 | 0.08 | 0.08 | 67 | 1009.8 |
| 20260505011937 | 53 | 0 | 3.0 | 3.0 | 0.00 | 0.08 | 0.08 | 66 | 1009.8 |
| 20260505011433 | 53 | 8 | 3.0 | 5.0 | 0.00 | 0.08 | 0.08 | 66 | 1010.0 |
| 20260505010930 | 54 | 318 | 4.0 | 6.0 | 0.00 | 0.08 | 0.08 | 65 | 1009.8 |
| 20260505010426 | 54 | 328 | 3.0 | 5.0 | 0.00 | 0.08 | 0.08 | 64 | 1010.0 |
| 20260505005922 | 54 | 322 | 2.0 | 2.0 | 0.00 | 0.08 | 0.08 | 64 | 1009.7 |
| 20260505005419 | 55 | 6 | 3.0 | 6.0 | 0.00 | 0.08 | 0.08 | 63 | 1010.1 |
| 20260505004917 | 55 | 322 | 5.0 | 7.0 | 0.00 | 0.08 | 0.08 | 62 | 1009.8 |
| 20260505004413 | 56 | 340 | 3.0 | 3.0 | 0.00 | 0.08 | 0.08 | 61 | 1009.7 |
| 20260505003910 | 56 | 333 | 2.0 | 2.0 | 0.00 | 0.08 | 0.08 | 62 | 1009.8 |
| 20260505003407 | 57 | 356 | 1.0 | 1.0 | 0.00 | 0.08 | 0.08 | 65 | 1009.7 |
| 20260505002903 | 57 | 340 | 0.0 | 0.0 | 0.00 | 0.08 | 0.08 | 63 | 1009.5 |
| 20260505002400 | 57 | 15 | 1.0 | 1.0 | 0.00 | 0.08 | 0.08 | 64 | 1009.6 |
| 20260505001858 | 57 | 328 | 0.0 | 0.0 | 0.00 | 0.08 | 0.08 | 68 | 1009.4 |
| 20260505001355 | 57 | 273 | 1.0 | 1.0 | 0.00 | 0.08 | 0.08 | 67 | 1009.5 |
| 20260505000853 | 57 | 277 | 1.0 | 1.0 | 0.00 | 0.08 | 0.08 | 67 | 1009.4 |
| 20260505000351 | 56 | 348 | 0.0 | 1.0 | 0.00 | 0.08 | 0.08 | 70 | 1009.5 |
| 20260504235847 | 55 | 335 | 0.0 | 0.0 | 0.00 | 0.08 | 0.08 | 72 | 1009.4 |
| 20260504235344 | 56 | 344 | 0.0 | 0.0 | 0.00 | 0.08 | 0.08 | 75 | 1009.4 |
| 20260504234840 | 56 | 301 | 0.0 | 0.0 | 0.00 | 0.08 | 0.08 | 74 | 1009.4 |
| 20260504234338 | 56 | 248 | 0.0 | 0.0 | 0.00 | 0.08 | 0.08 | 73 | 1009.4 |
| 20260504233834 | 56 | 225 | 0.0 | 1.0 | 0.00 | 0.08 | 0.08 | 71 | 1009.0 |
| 20260504233330 | 55 | 197 | 1.0 | 2.0 | 0.00 | 0.08 | 0.08 | 71 | 1009.1 |
| 20260504232827 | 55 | 180 | 1.0 | 2.0 | 0.00 | 0.08 | 0.08 | 80 | 1008.9 |
| 20260504232324 | 54 | 161 | 0.0 | 1.0 | 0.00 | 0.08 | 0.08 | 81 | 1009.0 |
| 20260504231821 | 54 | 318 | 0.0 | 0.0 | 0.00 | 0.08 | 0.08 | 81 | 1009.0 |
| 20260504231317 | 53 | 28 | 1.0 | 1.0 | 0.07 | 0.08 | 0.08 | 78 | 1009.4 |
| 20260504230813 | 53 | 164 | 1.0 | 1.0 | 0.12 | 0.08 | 0.08 | 76 | 1009.3 |
| 20260504230312 | 53 | 85 | 0.0 | 0.0 | 0.17 | 0.07 | 0.07 | 73 | 1009.4 |
| 20260504225810 | 54 | 19 | 4.0 | 6.0 | 0.12 | 0.06 | 0.06 | 69 | 1009.4 |
| 20260504225306 | 56 | 331 | 3.0 | 5.0 | 0.07 | 0.04 | 0.04 | 64 | 1009.3 |
| 20260504224803 | 59 | 328 | 2.0 | 2.0 | 0.07 | 0.04 | 0.04 | 55 | 1009.0 |
| 20260504224301 | 61 | 293 | 1.0 | 1.0 | 0.00 | 0.03 | 0.03 | 48 | 1008.8 |
| 20260504223757 | 61 | 308 | 2.0 | 2.0 | 0.00 | 0.03 | 0.03 | 42 | 1008.7 |
| 20260504223252 | 62 | 358 | 5.0 | 6.0 | 0.00 | 0.03 | 0.03 | 41 | 1008.6 |
| 20260504222749 | 62 | 61 | 2.0 | 2.0 | 0.00 | 0.03 | 0.03 | 41 | 1008.3 |
| 20260504222246 | 62 | 30 | 1.0 | 2.0 | 0.00 | 0.03 | 0.03 | 41 | 1008.2 |
| 20260504221744 | 62 | 11 | 3.0 | 3.0 | 0.00 | 0.03 | 0.03 | 41 | 1008.2 |
| 20260504221241 | 62 | 27 | 5.0 | 7.0 | 0.00 | 0.03 | 0.03 | 39 | 1008.1 |
| 20260504220738 | 62 | 347 | 3.0 | 5.0 | 0.00 | 0.03 | 0.03 | 39 | 1007.6 |
| 20260504220235 | 62 | 330 | 2.0 | 5.0 | 0.00 | 0.03 | 0.03 | 43 | 1007.5 |
| 20260504215732 | 62 | 350 | 4.0 | 5.0 | 0.00 | 0.03 | 0.03 | 43 | 1007.2 |
| 20260504215228 | 62 | 14 | 1.0 | 1.0 | 0.00 | 0.03 | 0.03 | 45 | 1007.4 |
| 20260504214724 | 62 | 8 | 2.0 | 2.0 | 0.00 | 0.03 | 0.03 | 45 | 1007.5 |
| 20260504214221 | 62 | 16 | 3.0 | 5.0 | 0.00 | 0.03 | 0.03 | 44 | 1007.6 |
| 20260504213718 | 62 | 48 | 6.0 | 9.0 | 0.00 | 0.03 | 0.03 | 47 | 1008.0 |
| 20260504213214 | 63 | 57 | 2.0 | 5.0 | 0.00 | 0.03 | 0.03 | 47 | 1008.1 |
| 20260504212711 | 61 | 132 | 5.0 | 7.0 | 0.00 | 0.03 | 0.03 | 44 | 1008.8 |
| 20260504212208 | 60 | 28 | 1.0 | 1.0 | 0.00 | 0.03 | 0.03 | 50 | 1008.9 |
| 20260504211705 | 59 | 91 | 3.0 | 3.0 | 0.00 | 0.03 | 0.03 | 49 | 1008.9 |
| 20260504211201 | 58 | 18 | 1.0 | 1.0 | 0.00 | 0.03 | 0.03 | 49 | 1009.4 |
| 20260504210659 | 59 | 15 | 5.0 | 7.0 | 0.00 | 0.03 | 0.03 | 49 | 1009.4 |
| 20260504210155 | 58 | 35 | 5.0 | 8.0 | 0.00 | 0.03 | 0.03 | 52 | 1009.4 |
| 20260504205653 | 57 | 32 | 2.0 | 2.0 | 0.05 | 0.03 | 0.03 | 57 | 1009.1 |
| 20260504205150 | 58 | 43 | 4.0 | 7.0 | 0.19 | 0.03 | 0.03 | 54 | 1009.0 |
| 20260504204649 | 60 | 13 | 2.0 | 2.0 | 0.14 | 0.02 | 0.02 | 51 | 1008.9 |
| 20260504204147 | 62 | 13 | 4.0 | 7.0 | 0.00 | 0.00 | 0.00 | 39 | 1008.8 |
| 20260504203645 | 62 | 318 | 2.0 | 5.0 | 0.00 | 0.00 | 0.00 | 40 | 1008.6 |
| 20260504203143 | 62 | 341 | 6.0 | 10.0 | 0.00 | 0.00 | 0.00 | 43 | 1008.2 |
| 20260504202642 | 64 | 6 | 4.0 | 6.0 | 0.00 | 0.00 | 0.00 | 37 | 1007.6 |
| 20260504202140 | 64 | 341 | 13.0 | 18.0 | 0.00 | 0.00 | 0.00 | 33 | 1007.4 |
| 20260504201636 | 65 | 49 | 8.0 | 13.0 | 0.00 | 0.00 | 0.00 | 32 | 1007.2 |
| 20260504201134 | 68 | 7 | 12.0 | 18.0 | 0.00 | 0.00 | 0.00 | 29 | 1007.3 |
| 20260504200631 | 70 | 31 | 3.0 | 3.0 | 0.00 | 0.00 | 0.00 | 24 | 1007.2 |
| 20260504200128 | 71 | 74 | 3.0 | 6.0 | 0.00 | 0.00 | 0.00 | 24 | 1006.9 |
| 20260504195624 | 72 | 24 | 2.0 | 2.0 | 0.00 | 0.00 | 0.00 | 23 | 1007.0 |
| 20260504195120 | 72 | 12 | 1.0 | 1.0 | 0.00 | 0.00 | 0.00 | 24 | 1007.2 |
| 20260504194617 | 73 | 340 | 2.0 | 2.0 | 0.00 | 0.00 | 0.00 | 24 | 1006.8 |
| 20260504194113 | 73 | 7 | 3.0 | 5.0 | 0.00 | 0.00 | 0.00 | 25 | 1007.0 |
| 20260504193609 | 75 | 348 | 1.0 | 2.0 | 0.00 | 0.00 | 0.00 | 23 | 1007.2 |
| 20260504193108 | 75 | 15 | 4.0 | 5.0 | 0.00 | 0.00 | 0.00 | 23 | 1007.2 |
| 20260504192606 | 74 | 316 | 2.0 | 3.0 | 0.00 | 0.00 | 0.00 | 24 | 1007.3 |
| 20260504192104 | 74 | 313 | 3.0 | 5.0 | 0.00 | 0.00 | 0.00 | 24 | 1007.2 |
| 20260504191602 | 75 | 310 | 4.0 | 7.0 | 0.00 | 0.00 | 0.00 | 23 | 1007.2 |
| 20260504191057 | 74 | 236 | 4.0 | 6.0 | 0.00 | 0.00 | 0.00 | 24 | 1006.9 |
| 20260504190554 | 72 | 253 | 3.0 | 3.0 | 0.00 | 0.00 | 0.00 | 24 | 1007.3 |
| 20260504190050 | 72 | 186 | 5.0 | 7.0 | 0.00 | 0.00 | 0.00 | 24 | 1007.2 |
| 20260504185547 | 72 | 0 | 7.0 | 11.0 | 0.00 | 0.00 | 0.00 | 24 | 1007.4 |
| 20260504185043 | 73 | 333 | 7.0 | 9.0 | 0.00 | 0.00 | 0.00 | 23 | 1007.2 |
| 20260504184539 | 73 | 324 | 7.0 | 9.0 | 0.00 | 0.00 | 0.00 | 23 | 1007.4 |
| 20260504184034 | 74 | 258 | 4.0 | 6.0 | 0.00 | 0.00 | 0.00 | 23 | 1007.3 |
| 20260504183532 | 73 | 333 | 8.0 | 10.0 | 0.00 | 0.00 | 0.00 | 24 | 1007.6 |
| 20260504183030 | 73 | 334 | 7.0 | 10.0 | 0.00 | 0.00 | 0.00 | 23 | 1007.7 |
| 20260504182526 | 73 | 293 | 4.0 | 7.0 | 0.00 | 0.00 | 0.00 | 24 | 1007.5 |
| 20260504182024 | 72 | 325 | 3.0 | 3.0 | 0.00 | 0.00 | 0.00 | 24 | 1007.6 |
| 20260504181521 | 72 | 261 | 3.0 | 5.0 | 0.00 | 0.00 | 0.00 | 25 | 1007.6 |
| 20260504181019 | 72 | 306 | 3.0 | 3.0 | 0.00 | 0.00 | 0.00 | 25 | 1008.1 |
| 20260504180518 | 71 | 278 | 4.0 | 5.0 | 0.00 | 0.00 | 0.00 | 26 | 1008.2 |
| 20260504180016 | 71 | 277 | 4.0 | 5.0 | 0.00 | 0.00 | 0.00 | 26 | 1008.2 |
| 20260504175513 | 70 | 209 | 2.0 | 3.0 | 0.00 | 0.00 | 0.00 | 26 | 1008.2 |
| 20260504175010 | 69 | 282 | 6.0 | 9.0 | 0.00 | 0.00 | 0.00 | 26 | 1008.3 |
| 20260504174508 | 70 | 215 | 3.0 | 5.0 | 0.00 | 0.00 | 0.00 | 27 | 1008.3 |
| 20260504174005 | 70 | 217 | 1.0 | 1.0 | 0.00 | 0.00 | 0.00 | 27 | 1008.6 |
| 20260504173501 | 69 | 174 | 2.0 | 2.0 | 0.00 | 0.00 | 0.00 | 28 | 1008.6 |
| 20260504172959 | 68 | 254 | 2.0 | 2.0 | 0.00 | 0.00 | 0.00 | 29 | 1008.8 |
| 20260504172454 | 68 | 147 | 2.0 | 5.0 | 0.00 | 0.00 | 0.00 | 29 | 1008.3 |
| 20260504171951 | 67 | 219 | 1.0 | 1.0 | 0.00 | 0.00 | 0.00 | 29 | 1008.7 |
| 20260504171448 | 66 | 257 | 2.0 | 2.0 | 0.00 | 0.00 | 0.00 | 30 | 1008.8 |
| 20260504170945 | 66 | 224 | 1.0 | 2.0 | 0.00 | 0.00 | 0.00 | 31 | 1008.6 |
| 20260504170441 | 66 | 200 | 5.0 | 6.0 | 0.00 | 0.00 | 0.00 | 30 | 1008.8 |
| 20260504160401 | 65 | 236 | 1.0 | 2.0 | 0.00 | 0.00 | 0.00 | 30 | 1008.8 |
| 20260504150825 | 64 | 291 | 2.0 | 2.0 | 0.00 | 0.00 | 0.00 | 29 | 1008.7 |
| 20260504150322 | 64 | 129 | 2.0 | 2.0 | 0.00 | 0.00 | 0.00 | 29 | 1008.9 |
| 20260504141252 | 53 | 75 | 0.0 | 0.0 | 0.00 | 0.00 | 0.00 | 48 | 1008.9 |
| 20260504140748 | 53 | 46 | 0.0 | 0.0 | 0.00 | 0.00 | 0.00 | 50 | 1009.0 |
| 20260504140244 | 51 | 21 | 0.0 | 0.0 | 0.00 | 0.00 | 0.00 | 51 | 1009.0 |
| 20260504130713 | 45 | 16 | 0.0 | 0.0 | 0.00 | 0.00 | 0.00 | 50 | 1009.3 |
| 20260504130209 | 44 | 186 | 0.0 | 0.0 | 0.00 | 0.00 | 0.00 | 50 | 1008.9 |
| 20260504120133 | 40 | 355 | 0.0 | 0.0 | 0.00 | 0.00 | 0.00 | 58 | 1008.9 |
| 20260504110600 | 40 | 323 | 0.0 | 0.0 | 0.00 | 0.00 | 0.00 | 56 | 1009.4 |
| 20260504100522 | 40 | 135 | 0.0 | 0.0 | 0.00 | 0.00 | 0.00 | 60 | 1009.6 |
| 20260504081915 | 44 | 242 | 0.0 | 0.0 | 0.00 | 0.00 | 0.00 | 52 | 1010.1 |
| 20260504081412 | 45 | 245 | 0.0 | 0.0 | 0.00 | 0.00 | 0.00 | 51 | 1010.3 |
| 20260504080908 | 46 | 287 | 0.0 | 0.0 | 0.00 | 0.00 | 0.00 | 53 | 1010.3 |
| 20260504080405 | 46 | 285 | 0.0 | 0.0 | 0.00 | 0.00 | 0.00 | 53 | 1010.4 |